Temperature
8 8 7 7 7 7 7 7 7 6 6 7 7 8 8 8 7 7 7 7 7 7 7 7 7 7 7 7 7 7 6 6 6 6 7 7 7 7
7 7 7 7 7 6 6 6 6 6 6 6 7 7 7 7 7 7 7 7 7 7 7 7 6 7 7 6 6 6 6 6 6 6 6 6 7 7
7 6 6 6 6 6 6 6 6 6 5 6 6 6 6 6 6 6 6 6 6 6 6 6 6 6 6 6 6 5 5 5 5 5 6 6 6 6
6 6 6 5 5 5 5 5 5 5 5 5 5 5 5 6 6 6 5 5 5 6 6 6 6 5 5 5 5 5 5 5 5 5 5 6 6 6
5 5 5 5 5 5 5 5 5 5 5 5 5 5 5 5 5 5 5 5 5 5 5 5 5 5 5 5 5 5 5 4 5 5 5 5 5 5
5 5 5 4 4 4 4 4 4 4 4 4 4 4 4 4 4 4 4 3 4 4 4 4 4 4 4 4 4 4 4 4 4 4 5 5 5 5
4 4 4 4 4 4 4 4 4 4 4 4 4 3 3 3 3 3 3 3 3 3 3 3 3 3 3 3 3 3 4 4 4 4 4 4 5 5
4 4 4 4 4 4 4 4 4 4 4 3 3 3 3 3 3 3 2 2 2 2 2 2 2 2 2 3 3 3 3 3 4 4 4 4 4 4
3 3 3 3 3 3 3 3 3 3 3 3 3 3 3 3 3 3 2 2 2 2 2 2 2 2 2 2 2 2 3 3 3 3 3 4 4 4
3 3 3 3 3 3 3 3 3 3 3 3 3 3 3 3 3 3 2 2 2 1 2 1 1 2 2 2 2 2 2 2 3 3 3 3 3 4
2 2 2 2 2 2 2 2 2 2 2 3 3 2 2 2 2 2 2 1 1 1 1 1 1 1 1 1 1 1 1 2 2 2 2 2 3 3
2 2 2 2 2 2 2 2 2 2 2 2 2 2 2 2 2 1 1 1 1 0 0 1 1 1 0 1 1 1 1 1 1 1 2 2 2 2
2 2 2 2 2 2 2 1 2 2 2 2 2 2 1 1 1 1 1 1 1 1 1 1 1 0 0 -0 -0 0 0 1 1 1 1 1 1 1
1 1 1 1 1 1 1 1 1 1 1 2 1 1 1 1 1 0 0 0 0 0 0 0 1 0 0 -0 -0 -0 -0 0 0 0 1 1 1 1
1 1 1 1 1 1 1 1 1 1 1 1 1 0 0 0 0 -0 -0 -0 -0 -0 -0 -0 -0 -0 -0 -0 -0 -0 -0 -0 -0 -0 -0 0 0 0
0 0 0 0 0 0 0 0 0 0 0 0 -0 -0 -0 -1 -1 -1 -1 -1 -1 -1 -1 -1 -1 -1 -1 -1 -1 -1 -1 -1 -1 -0 -1 -0 -0 -0
-0 -0 -0 -1 -1 -1 -0 -0 -0 -0 -0 -1 -1 -1 -1 -1 -1 -1 -1 -1 -1 -2 -2 -2 -2 -2 -2 -1 -1 -1 -1 -1 -1 -1 -1 -1 -1 -1
-1 -1 -1 -1 -1 -1 -1 -1 -1 -1 -1 -1 -1 -1 -2 -2 -2 -2 -2 -2 -2 -2 -2 -2 -2 -2 -2 -2 -2 -2 -2 -2 -1 -1 -1 -1 -1 -1
-1 -2 -2 -2 -2 -2 -2 -2 -2 -2 -2 -2 -2 -2 -2 -2 -2 -2 -2 -2 -2 -2 -3 -3 -3 -3 -3 -3 -3 -2 -2 -2 -2 -2 -2 -2 -2 -2
-2 -2 -2 -2 -2 -2 -2 -2 -2 -3 -2 -2 -2 -3 -3 -3 -3 -3 -3 -3 -3 -3 -3 -3 -3 -3 -2 -2 -3 -3 -2 -3 -2 -3 -3 -3 -3 -2
-3 -3 -3 -3 -3 -3 -3 -3 -3 -3 -3 -3 -3 -3 -3 -3 -3 -3 -3 -3 -3 -3 -3 -3 -3 -3 -3 -3 -3 -3 -3 -3 -3 -3 -3 -3 -3 -3
-3 -3 -3 -3 -3 -3 -3 -3 -3 -4 -4 -4 -4 -4 -4 -4 -4 -4 -4 -4 -4 -4 -4 -4 -4 -4 -4 -3 -3 -3 -3 -4 -4 -4 -4 -3 -3 -3
-3 -3 -3 -4 -4 -4 -4 -4 -4 -4 -4 -4 -4 -4 -4 -4 -4 -4 -4 -4 -4 -4 -4 -4 -4 -4 -4 -4 -4 -4 -4 -4 -4 -4 -4 -4 -4 -4
Wind_Speed
8 8 8 7 6 6 6 6 7 9 9 8 6 6 6 8 8 9 9 9 10 10 10 9 9 8 8 7 7 5 4 4 4 4 5 5 5 6
7 8 9 7 6 6 6 7 7 8 9 7 6 6 6 6 8 9 9 9 10 11 10 9 9 8 9 8 6 5 4 4 4 4 5 6 6 6
7 8 9 8 7 7 6 7 7 7 9 7 6 6 6 6 6 6 7 7 8 10 9 8 8 7 8 7 6 4 4 4 4 5 6 6 6 5
7 8 9 7 8 7 7 8 7 7 7 8 6 5 6 6 5 4 4 5 5 8 9 8 8 7 7 7 5 3 3 2 3 4 4 4 4 4
7 8 8 8 8 7 7 7 6 6 6 6 6 4 4 4 4 3 2 2 2 5 7 7 7 7 6 6 5 3 2 2 2 3 3 3 3 3
6 7 7 8 8 7 7 7 6 6 6 5 4 4 3 3 3 3 2 1 1 2 3 4 5 6 6 5 4 3 3 2 2 1 1 2 2 2
6 6 7 8 9 7 6 6 6 6 5 4 4 3 3 2 3 3 3 1 1 0 1 1 3 3 4 4 3 3 3 2 1 1 0 0 1 3
5 6 6 6 6 7 7 7 6 6 6 5 4 5 5 4 3 2 2 1 1 1 1 1 1 2 2 2 2 2 2 2 1 1 1 2 3 4
5 5 5 5 5 5 6 6 6 6 6 6 6 6 5 5 4 4 4 3 2 2 2 1 1 1 1 1 2 3 2 2 2 2 2 3 4 5
5 5 5 5 5 5 5 5 5 5 4 5 5 5 4 3 5 4 3 2 2 1 1 1 1 0 1 1 1 1 2 2 3 3 4 5 5 6
5 5 5 5 5 5 5 5 5 5 3 3 2 1 1 3 4 3 3 3 1 0 0 1 1 1 1 1 1 1 1 2 3 4 5 6 6 6
5 5 4 5 6 6 5 5 5 5 3 2 1 1 1 2 3 3 4 4 2 1 1 2 2 2 1 1 1 1 1 2 3 4 5 6 5 4
4 4 4 6 6 6 6 5 5 4 2 2 1 0 1 1 1 1 1 2 3 1 3 2 2 2 2 1 1 1 1 2 2 2 4 5 6 4
4 4 4 5 5 5 4 3 3 2 1 1 1 1 1 1 1 1 2 3 3 2 3 3 2 3 3 2 2 1 1 2 2 2 2 4 6 6
4 5 5 4 4 3 4 4 2 1 1 0 1 1 0 1 2 2 3 5 6 5 3 2 3 3 2 3 2 2 2 1 1 2 2 2 2 3
4 3 3 3 3 3 3 2 1 1 0 1 1 0 1 1 2 2 2 3 3 3 4 4 3 3 3 3 3 3 2 2 2 2 2 2 2 2
4 2 2 2 3 3 3 2 2 1 0 0 1 2 2 1 1 1 2 2 2 2 2 2 4 5 4 3 3 3 3 2 3 3 3 2 2 2
2 2 2 2 3 3 3 2 1 1 1 0 1 2 2 2 2 2 2 2 3 3 3 3 3 3 2 3 3 3 3 2 3 3 3 3 2 1
2 2 2 2 2 2 2 2 2 1 1 0 1 1 2 2 3 3 3 3 3 3 3 3 3 3 4 2 1 1 2 3 3 3 2 2 2 2
2 2 3 2 2 2 2 2 1 1 1 1 1 1 2 2 3 3 3 3 3 3 3 2 2 2 2 2 2 2 1 3 3 3 2 2 2 2
3 3 3 3 3 2 2 2 1 1 1 1 1 1 1 2 2 3 3 5 4 3 3 2 2 3 3 3 4 2 2 2 2 2 3 3 2 2
3 3 3 3 3 2 2 2 1 1 1 1 1 1 1 2 3 3 3 4 3 3 3 3 3 3 2 2 4 4 3 3 4 5 4 2 1 2
3 3 3 3 3 2 2 2 2 1 1 1 1 1 2 2 2 3 3 3 3 4 4 4 3 2 2 3 4 4 5 4 3 3 2 2 2 3
Wind_Direction
239 241 244 250 255 255 257 257 259 268 268 271 274 263 257 252 245 241 241 234 232 236 239 239 232 228 220 209 207 205 217 240 250 256 264 267 280 274
246 245 247 251 252 252 252 256 258 264 270 274 280 289 272 261 244 240 240 233 229 230 228 223 221 221 209 197 190 196 214 240 255 267 274 267 271 273
253 249 251 256 257 256 255 255 256 258 270 291 299 294 278 270 257 242 233 226 225 219 212 206 200 198 187 175 177 192 220 238 255 269 271 266 264 257
263 259 256 257 258 260 258 257 259 261 267 278 291 300 296 268 261 253 244 228 217 206 197 193 187 187 179 171 174 188 216 241 268 277 279 272 255 244
262 264 264 262 258 263 264 262 261 267 270 273 283 297 303 280 266 264 268 259 193 178 183 187 187 187 175 170 175 183 203 239 272 284 285 283 256 234
266 268 269 265 263 267 262 261 261 262 264 265 276 289 291 285 258 241 248 269 246 175 174 177 180 172 167 167 177 179 185 211 244 250 271 287 247 203
271 271 271 270 270 270 270 267 262 259 260 257 266 278 274 250 240 239 230 239 314 230 173 168 167 169 172 172 173 169 174 190 212 180 171 303 165 155
283 281 282 274 281 278 278 275 267 259 257 251 253 252 249 248 234 228 220 206 235 238 197 188 164 170 178 181 167 163 176 177 149 122 139 139 146 139
291 289 292 292 290 284 282 280 272 262 255 251 250 251 241 231 212 206 207 205 221 200 159 182 169 179 155 159 150 163 164 150 117 98 117 118 129 132
294 289 289 295 300 300 291 289 289 279 268 255 250 252 247 216 204 200 190 140 61 90 126 149 172 148 103 138 143 149 131 111 105 104 100 101 108 119
304 297 291 292 305 300 285 285 293 295 289 273 273 251 152 150 165 164 157 150 113 98 84 123 122 80 89 86 64 76 120 100 98 103 101 93 92 102
307 302 302 305 306 300 278 274 280 285 287 277 272 46 109 136 145 180 185 174 152 164 175 147 137 120 110 85 75 112 146 121 100 94 100 98 99 112
306 308 310 320 316 306 285 274 278 283 266 244 224 153 113 132 149 145 172 174 163 165 172 155 143 136 133 127 113 80 119 132 127 110 106 103 104 115
304 307 309 322 326 330 317 308 302 284 260 235 210 194 167 154 133 103 82 73 77 112 153 146 138 147 135 129 145 134 101 103 106 95 106 106 105 100
311 312 312 321 328 328 333 330 329 308 279 218 211 237 206 140 124 105 86 85 74 73 92 99 127 136 129 138 137 138 129 95 99 103 98 100 112 128
316 312 310 318 323 329 332 332 335 334 217 193 179 128 89 110 117 119 123 116 97 74 61 74 100 118 116 113 128 139 136 145 140 119 109 92 96 108
325 327 340 343 341 338 340 354 351 344 315 189 161 154 143 136 123 121 131 132 131 138 115 88 83 82 78 105 130 137 137 129 140 136 129 112 88 106
352 343 334 333 327 332 334 332 329 325 317 246 180 172 176 171 156 148 150 146 140 141 142 138 131 120 108 64 47 138 136 134 135 138 141 135 127 121
348 336 330 329 324 321 318 314 310 311 299 240 196 184 180 175 168 163 157 148 144 147 151 153 161 168 169 166 87 34 140 143 139 136 142 144 145 135
333 321 318 319 315 312 308 303 303 309 306 271 207 177 177 177 173 170 165 159 157 155 155 158 172 184 182 152 135 105 97 143 151 151 145 123 91 80
318 313 312 313 311 307 301 291 275 266 273 266 241 188 175 175 176 173 167 164 166 167 169 166 139 119 107 111 115 114 91 71 94 128 142 146 150 159
304 306 308 309 307 302 298 290 273 249 234 235 224 197 186 182 177 172 169 171 173 165 153 136 130 135 145 153 145 138 126 108 92 90 80 86 142 181
293 292 295 299 299 298 294 284 268 251 238 233 221 202 183 179 177 172 168 166 158 151 147 148 145 136 134 141 143 142 140 140 131 122 102 79 76 69
Height
1472 1473 1473 1473 1473 1473 1473 1473 1472 1468 1464 1464 1463 1462 1462 1461 1459 1458 1457 1456 1456 1456 1456 1456 1457 1457 1458 1458 1460 1461 1462 1463 1464 1465 1466 1467 1468 1469
1466 1466 1466 1467 1467 1466 1466 1466 1466 1464 1460 1457 1457 1456 1455 1454 1452 1451 1450 1450 1450 1449 1450 1450 1451 1452 1453 1453 1455 1457 1457 1459 1460 1461 1462 1463 1464 1465
1460 1460 1460 1460 1460 1460 1459 1459 1458 1458 1455 1452 1451 1450 1449 1447 1446 1445 1444 1444 1443 1444 1444 1445 1446 1447 1447 1449 1450 1452 1454 1455 1456 1457 1458 1459 1460 1461
1455 1454 1454 1454 1453 1453 1452 1452 1451 1451 1450 1447 1445 1444 1443 1441 1440 1438 1438 1438 1438 1438 1439 1440 1441 1442 1443 1444 1446 1447 1449 1451 1452 1453 1454 1454 1455 1457
1449 1449 1448 1448 1447 1446 1446 1445 1445 1444 1443 1442 1439 1438 1437 1436 1435 1433 1432 1432 1433 1433 1435 1436 1436 1438 1439 1440 1441 1443 1445 1447 1448 1449 1450 1451 1452 1453
1444 1443 1443 1442 1441 1440 1440 1439 1438 1438 1437 1435 1434 1433 1432 1431 1431 1429 1428 1429 1429 1429 1430 1432 1433 1434 1436 1437 1438 1440 1442 1444 1444 1445 1446 1447 1448 1449
1439 1439 1438 1437 1436 1435 1434 1433 1433 1432 1431 1430 1429 1428 1427 1426 1426 1426 1425 1426 1426 1426 1427 1428 1430 1431 1432 1433 1435 1437 1439 1440 1441 1442 1443 1444 1445 1447
1434 1434 1433 1432 1431 1430 1429 1428 1428 1427 1425 1425 1423 1423 1422 1422 1422 1423 1422 1422 1423 1425 1425 1426 1427 1428 1430 1431 1432 1434 1436 1437 1438 1439 1440 1441 1442 1444
1430 1429 1428 1427 1426 1425 1424 1424 1423 1422 1422 1421 1419 1418 1418 1419 1419 1419 1420 1419 1419 1421 1422 1423 1425 1426 1427 1429 1430 1432 1434 1435 1435 1436 1437 1438 1440 1441
1427 1425 1424 1423 1422 1421 1420 1419 1418 1417 1417 1416 1416 1415 1415 1415 1416 1416 1417 1417 1418 1419 1420 1421 1422 1423 1425 1427 1429 1430 1431 1432 1434 1434 1435 1436 1437 1439
1424 1423 1421 1420 1419 1418 1416 1415 1414 1413 1413 1412 1412 1412 1411 1411 1412 1413 1414 1414 1415 1417 1418 1419 1420 1421 1423 1425 1427 1428 1429 1431 1432 1433 1434 1435 1436 1437
1421 1419 1418 1416 1415 1414 1413 1411 1410 1409 1409 1408 1408 1408 1408 1408 1408 1409 1410 1412 1412 1414 1416 1417 1418 1420 1421 1423 1425 1426 1428 1429 1430 1432 1433 1434 1436 1437
1417 1415 1414 1413 1411 1410 1409 1408 1407 1406 1405 1405 1404 1404 1404 1405 1405 1407 1408 1409 1410 1411 1413 1415 1416 1418 1420 1421 1423 1425 1427 1428 1429 1431 1433 1434 1436 1437
1414 1412 1411 1409 1408 1407 1405 1404 1403 1403 1402 1401 1401 1401 1401 1402 1403 1404 1405 1406 1408 1409 1411 1413 1414 1416 1417 1419 1421 1423 1425 1427 1429 1430 1432 1434 1435 1437
1411 1409 1408 1407 1405 1404 1402 1401 1400 1399 1399 1398 1398 1398 1399 1399 1400 1401 1403 1404 1405 1407 1409 1411 1412 1414 1416 1418 1420 1422 1424 1426 1428 1430 1431 1433 1435 1437
1409 1407 1405 1404 1402 1401 1399 1398 1397 1396 1396 1396 1396 1396 1397 1397 1397 1399 1400 1401 1403 1405 1407 1409 1411 1413 1415 1417 1419 1421 1423 1425 1427 1429 1431 1432 1434 1436
1406 1404 1403 1402 1400 1398 1397 1396 1395 1395 1394 1394 1394 1394 1395 1395 1396 1397 1398 1399 1401 1403 1405 1407 1409 1412 1414 1416 1418 1420 1422 1424 1426 1428 1430 1431 1433 1436
1405 1402 1401 1399 1398 1396 1395 1394 1393 1393 1392 1392 1392 1392 1393 1394 1394 1395 1397 1398 1399 1401 1404 1406 1408 1410 1413 1416 1418 1419 1421 1423 1425 1427 1429 1431 1433 1435
1402 1400 1399 1397 1396 1395 1393 1392 1391 1391 1390 1390 1390 1390 1391 1392 1392 1393 1395 1396 1398 1400 1402 1404 1406 1408 1411 1413 1415 1418 1420 1422 1424 1427 1429 1431 1433 1435
1400 1399 1397 1396 1394 1393 1392 1391 1390 1389 1389 1388 1388 1388 1389 1389 1390 1391 1393 1395 1397 1399 1401 1403 1405 1407 1409 1411 1413 1416 1419 1421 1423 1425 1428 1430 1432 1434
1398 1397 1395 1394 1393 1391 1390 1389 1389 1388 1387 1387 1386 1387 1387 1388 1389 1390 1391 1393 1395 1397 1399 1401 1403 1406 1408 1411 1412 1414 1417 1420 1422 1424 1427 1429 1431 1433
1396 1395 1393 1392 1391 1390 1388 1388 1387 1386 1386 1385 1385 1385 1386 1386 1387 1388 1390 1391 1393 1395 1397 1399 1402 1404 1406 1408 1410 1413 1415 1418 1420 1423 1425 1427 1429 1431
1394 1392 1391 1390 1389 1388 1387 1386 1385 1385 1384 1384 1384 1384 1384 1385 1386 1387 1388 1390 1392 1393 1395 1398 1400 1402 1404 1407 1409 1411 1414 1416 1418 1421 1423 1425 1427 1429